| time (UTC) | temp F | wind direction | speed MPH | gust MPH | rain 1hr in | rain 24hr in | rain mn in | humidity % | barometer mb |
| 20260508131513 | 61 | 238 | 4.0 | 11.0 | 0.00 | 0.36 | 0.00 | 49 | 1015.1 |
| 20260508130013 | 61 | 233 | 7.0 | 13.0 | 0.00 | 0.37 | 0.00 | 49 | 1015.0 |
| 20260508124512 | 60 | 239 | 7.0 | 12.0 | 0.00 | 0.40 | 0.00 | 51 | 1015.2 |
| 20260508121513 | 61 | 225 | 7.0 | 18.0 | 0.00 | 0.51 | 0.00 | 57 | 1015.7 |
| 20260508120013 | 63 | 183 | 5.0 | 15.0 | 0.00 | 0.56 | 0.00 | 55 | 1015.3 |
| 20260508114513 | 62 | 195 | 4.0 | 11.0 | 0.00 | 0.61 | 0.00 | 54 | 1015.5 |
| 20260508113013 | 62 | 162 | 1.0 | 6.0 | 0.00 | 0.69 | 0.00 | 56 | 1015.7 |
| 20260508111512 | 59 | 196 | 0.0 | 3.0 | 0.00 | 0.89 | 0.00 | 61 | 1015.9 |
| 20260508104512 | 59 | 202 | 1.0 | 6.0 | 0.00 | 1.36 | 0.00 | 61 | 1016.1 |
| 20260508103012 | 58 | 153 | 1.0 | 2.0 | 0.00 | 1.50 | 0.00 | 60 | 1016.2 |
| 20260508101513 | 58 | 108 | 1.0 | 5.0 | 0.00 | 2.05 | 0.00 | 60 | 1016.2 |
| 20260508100012 | 58 | 148 | 1.0 | 5.0 | 0.00 | 2.54 | 0.00 | 58 | 1016.1 |
| 20260508094513 | 57 | 90 | 2.0 | 4.0 | 0.00 | 2.80 | 0.00 | 54 | 1016.1 |
| 20260508093013 | 57 | 117 | 1.0 | 4.0 | 0.00 | 3.07 | 0.00 | 52 | 1016.2 |
| 20260508091513 | 56 | 189 | 2.0 | 4.0 | 0.00 | 3.07 | 0.00 | 47 | 1016.3 |
| 20260508090012 | 55 | 173 | 2.0 | 6.0 | 0.00 | 3.07 | 0.00 | 40 | 1016.4 |
| 20260508084512 | 55 | 171 | 2.0 | 7.0 | 0.00 | 3.07 | 0.00 | 35 | 1016.0 |
| 20260508083013 | 53 | 208 | 3.0 | 7.0 | 0.00 | 3.07 | 0.00 | 28 | 1015.9 |
| 20260508081513 | 53 | 188 | 2.0 | 6.0 | 0.00 | 3.07 | 0.00 | 32 | 1015.7 |
| 20260508080012 | 53 | 171 | 2.0 | 6.0 | 0.00 | 3.07 | 0.00 | 29 | 1015.5 |
| 20260508074513 | 52 | 165 | 0.0 | 4.0 | 0.00 | 3.07 | 0.00 | 22 | 1015.8 |
| 20260508071512 | 48 | 109 | 0.0 | 1.0 | 0.00 | 3.07 | 0.00 | 1 | 1015.4 |
| 20260508070013 | 47 | 146 | 1.0 | 2.0 | 0.00 | 3.07 | 0.00 | 1 | 1015.4 |
| 20260508064512 | 47 | 169 | 0.0 | 2.0 | 0.00 | 3.07 | 0.00 | 6 | 1015.4 |
| 20260508063013 | 47 | 0 | 0.0 | 0.0 | 0.00 | 3.07 | 0.00 | 1 | 1015.1 |
| 20260508061513 | 46 | 0 | 0.0 | 0.0 | 0.00 | 3.07 | 0.00 | 1 | 1015.1 |
| 20260508060012 | 46 | 0 | 0.0 | 0.0 | 0.00 | 3.07 | 0.00 | 1 | 1014.9 |
| 20260508053012 | 46 | 133 | 0.0 | 1.0 | 0.00 | 3.07 | 0.00 | 1 | 1015.1 |
| 20260508051513 | 46 | 119 | 0.0 | 1.0 | 0.00 | 3.07 | 0.00 | 1 | 1014.8 |
| 20260508050012 | 45 | 90 | 0.0 | 1.0 | 0.00 | 3.07 | 0.00 | 1 | 1014.7 |
| 20260508044513 | 45 | 121 | 0.0 | 1.0 | 0.00 | 3.07 | 0.00 | 1 | 1014.6 |
| 20260508043012 | 45 | 132 | 1.0 | 4.0 | 0.00 | 3.07 | 0.00 | 1 | 1014.6 |
| 20260508041512 | 45 | 119 | 1.0 | 3.0 | 0.00 | 3.07 | 0.00 | 1 | 1014.5 |
| 20260508040013 | 45 | 102 | 2.0 | 6.0 | 0.00 | 3.07 | 0.00 | 1 | 1014.4 |
| 20260508031512 | 45 | 76 | 4.0 | 8.0 | 0.00 | 3.07 | 0.00 | 1 | 1014.0 |
| 20260508030013 | 45 | 88 | 3.0 | 6.0 | 0.00 | 3.07 | 0.00 | 1 | 1014.4 |
| 20260508024512 | 45 | 85 | 2.0 | 8.0 | 0.00 | 3.07 | 0.00 | 1 | 1014.3 |
| 20260508023012 | 45 | 87 | 3.0 | 7.0 | 0.00 | 3.07 | 0.00 | 1 | 1014.3 |
| 20260508021513 | 45 | 79 | 3.0 | 7.0 | 0.00 | 3.07 | 0.00 | 1 | 1014.2 |
| 20260508020012 | 45 | 83 | 4.0 | 8.0 | 0.00 | 3.07 | 0.00 | 1 | 1014.6 |
| 20260508014512 | 45 | 85 | 2.0 | 6.0 | 0.00 | 3.07 | 0.00 | 1 | 1014.5 |
| 20260508011512 | 45 | 83 | 3.0 | 6.0 | 0.00 | 3.07 | 0.00 | 1 | 1014.8 |
| 20260508010012 | 46 | 85 | 3.0 | 7.0 | 0.00 | 3.07 | 0.00 | 1 | 1015.1 |
| 20260508004513 | 46 | 75 | 5.0 | 9.0 | 0.00 | 3.07 | 0.00 | 1 | 1015.2 |
| 20260508003012 | 46 | 75 | 3.0 | 9.0 | 0.00 | 3.07 | 0.00 | 1 | 1015.3 |
| 20260508001512 | 46 | 80 | 3.0 | 6.0 | 0.00 | 3.07 | 0.00 | 1 | 1015.5 |
| 20260508000013 | 46 | 76 | 4.0 | 7.0 | 0.00 | 3.07 | 0.00 | 1 | 1015.7 |
| 20260507234513 | 46 | 73 | 2.0 | 7.0 | 0.00 | 3.07 | 0.00 | 1 | 1015.7 |
| 20260507233012 | 46 | 81 | 3.0 | 7.0 | 0.00 | 3.07 | 0.00 | 1 | 1015.9 |
| 20260507231513 | 46 | 80 | 2.0 | 7.0 | 0.00 | 3.07 | 0.00 | 1 | 1016.0 |
| 20260507223012 | 46 | 87 | 1.0 | 3.0 | 0.01 | 3.07 | 0.00 | 1 | 1016.3 |
| 20260507221513 | 46 | 86 | 2.0 | 5.0 | 0.01 | 3.07 | 0.00 | 1 | 1016.4 |
| 20260507220013 | 46 | 93 | 2.0 | 6.0 | 0.01 | 3.07 | 0.00 | 1 | 1016.4 |
| 20260507214513 | 46 | 98 | 3.0 | 9.0 | 0.00 | 3.06 | 3.06 | 1 | 1016.3 |
| 20260507213013 | 46 | 83 | 3.0 | 8.0 | 0.00 | 3.06 | 3.06 | 1 | 1016.3 |
| 20260507211513 | 47 | 89 | 4.0 | 9.0 | 0.00 | 3.06 | 3.06 | 1 | 1016.2 |
| 20260507210012 | 47 | 86 | 4.0 | 10.0 | 0.00 | 3.06 | 3.06 | 1 | 1015.9 |
| 20260507204513 | 47 | 83 | 3.0 | 8.0 | 0.00 | 3.06 | 3.06 | 1 | 1015.7 |
| 20260507201512 | 47 | 97 | 3.0 | 6.0 | 0.00 | 3.06 | 3.06 | 1 | 1015.5 |
| 20260507200013 | 47 | 99 | 2.0 | 6.0 | 0.00 | 3.06 | 3.06 | 1 | 1015.3 |
| 20260507194513 | 47 | 105 | 3.0 | 6.0 | 0.00 | 3.06 | 3.06 | 1 | 1015.0 |
| 20260507193013 | 47 | 117 | 2.0 | 4.0 | 0.00 | 3.06 | 3.06 | 1 | 1014.7 |
| 20260507191513 | 48 | 107 | 3.0 | 5.0 | 0.00 | 3.06 | 3.06 | 1 | 1014.3 |
| 20260507184513 | 49 | 110 | 4.0 | 11.0 | 0.00 | 3.06 | 3.06 | 1 | 1014.2 |
| 20260507183012 | 49 | 123 | 4.0 | 11.0 | 0.00 | 3.06 | 3.06 | 1 | 1014.0 |
| 20260507180013 | 49 | 100 | 6.0 | 13.0 | 0.00 | 3.06 | 3.06 | 1 | 1013.6 |
| 20260507174513 | 49 | 91 | 5.0 | 14.0 | 0.00 | 3.06 | 3.06 | 1 | 1013.9 |
| 20260507173012 | 48 | 76 | 5.0 | 13.0 | 0.00 | 3.06 | 3.06 | 1 | 1013.9 |
| 20260507171513 | 48 | 88 | 5.0 | 15.0 | 0.02 | 3.06 | 3.06 | 1 | 1014.0 |
| 20260507164512 | 48 | 101 | 3.0 | 9.0 | 0.16 | 3.06 | 3.06 | 1 | 1014.6 |
| 20260507163013 | 47 | 95 | 4.0 | 11.0 | 0.22 | 3.06 | 3.06 | 1 | 1014.6 |
| 20260507161513 | 48 | 91 | 1.0 | 5.0 | 0.29 | 3.05 | 3.05 | 1 | 1015.1 |
| 20260507160012 | 48 | 88 | 1.0 | 4.0 | 0.23 | 2.95 | 2.95 | 1 | 1015.6 |
| 20260507154513 | 48 | 118 | 4.0 | 7.0 | 0.20 | 2.91 | 2.91 | 1 | 1015.4 |
| 20260507153012 | 48 | 99 | 5.0 | 9.0 | 0.13 | 2.83 | 2.84 | 1 | 1015.1 |
| 20260507151513 | 49 | 94 | 7.0 | 15.0 | 0.04 | 2.75 | 2.75 | 1 | 1014.3 |
| 20260507150013 | 50 | 103 | 6.0 | 17.0 | 0.02 | 2.72 | 2.72 | 1 | 1014.3 |
| 20260507144513 | 52 | 97 | 5.0 | 13.0 | 0.00 | 2.71 | 2.71 | 27 | 1014.2 |
| 20260507143013 | 52 | 77 | 7.0 | 17.0 | 0.00 | 2.71 | 2.71 | 28 | 1014.1 |
| 20260507140013 | 53 | 71 | 9.0 | 17.0 | 0.01 | 2.71 | 2.71 | 35 | 1014.1 |